Regional Weather Roundup
Issued by NWS

Home | Current Version | Previous Version | Text Only | Print | Product List | Glossary On
Versions: 1 2 3 4 5 6 7 8 9 10 11 12 13 14 15 16 17 18 19 20 21 22 23 24 25 26 27 28 29 30 31 32 33 34 35 36 37 38 39 40 41 42 43 44 45 46 47 48 49 50
000
ASUS45 KREV 251510
RWRNV
NEVADA REGIONAL WEATHER ROUNDUP
NATIONAL WEATHER SERVICE RENO NV
700 AM PST SAT FEB 25 2017

NOTE: "FAIR" INDICATES FEW OR NO CLOUDS BELOW 12,000 FEET WITH NO
SIGNIFICANT WEATHER AND/OR OBSTRUCTIONS TO VISIBILITY.

NVZ001-003-004-251600-
WESTERN NEVADA

CITY           SKY/WX    TMP DP  RH WIND       PRES   REMARKS
RENO           LGT SNOW  27  24  89 N7        30.08R VSB 1
CARSON CITY    CLOUDY    30  14  51 CALM      30.06R
MINDEN         FAIR      25  19  80 SE3       30.05S
PYRAMID LAKE     N/A     28 N/A N/A SE3         N/A
FALLON         CLOUDY    28  22  78 CALM      30.09R
LOVELOCK       CLOUDY    30  21  69 CALM      30.10R
HAWTHORNE      CLEAR     21  14  73 S3        30.07S
$$

NVZ002-CAZ072-073-251600-
NORTHERN AND CENTRAL SIERRA

CITY           SKY/WX    TMP DP  RH WIND       PRES   REMARKS
S. LAKE TAHOE  CLOUDY    22  10  60 S10       30.00R
TRUCKEE        SNOWSHWR  21  18  86 CALM      30.02R
SQUAW VLY 8000   N/A     19  19 100 SW7         N/A
SUSANVILLE     CLEAR    N/A N/A N/A MISG      30.09S
MAMMOTH LAKES  FAIR      14   4  63 CALM      29.96S
BRIDGEPORT       N/A     14   3  61 CALM      29.95R
$$

NVZ030-031-036-251600-
NORTHERN NEVADA

CITY           SKY/WX    TMP DP  RH WIND       PRES   REMARKS
ELKO           MOCLDY    20  11  68 NE3       30.05R
WINNEMUCCA     NOT AVBL
WENDOVER       MOCLDY    21  12  68 CALM      30.07S
$$

NVZ035-037-251600-
CENTRAL NEVADA

CITY           SKY/WX    TMP DP  RH WIND       PRES   REMARKS
ELY            CLOUDY    12   7  80 SE3       30.01S
EUREKA           N/A     19  12  74 CALM      30.02R
$$

NVZ013-014-251600-
SOUTH CENTRAL NEVADA

CITY           SKY/WX    TMP DP  RH WIND       PRES   REMARKS
TONOPAH        CLEAR     19  14  81 N7        30.02S
$$

NVZ017-020-022-251600-
SOUTHERN NEVADA

CITY           SKY/WX    TMP DP  RH WIND       PRES   REMARKS
LAS VEGAS      PTCLDY    39  20  46 CALM      30.07R
N. LAS VEGAS   CLEAR     35  23  61 CALM      30.08R
NELLIS AFB     CLEAR     37  21  51 N5        30.10R
HENDERSON      CLEAR     33  21  61 S5        30.10R
MERCURY        CLEAR     28  20  71 N5        30.05R
$$



USA.gov is the U.S. government's official web portal to all federal, state and local government web resources and services.